Weather observations for the past three days for
Concord, Buchanan Field
Metric (Imperial)
Date Time (pdt) Wind (kph) Vis. (km) Weather Sky Cond. Temperature (ºC) Relative Humidity Wind Chill (°C) Heat Index (°C) Pressure Precipitation (cm)
Air Dwpt 6 hour altimeter (cm) sea level (mb) 1 hr 3 hr 6 hr
Max. Min.
02 12:53 SW 28 G 41 16.09 Overcast OVC016 16.7 10 65% 76.05 1012.3
02 11:53 SW 26 G 43 16.09 Overcast OVC016 15.6 10 70% 76.05 1012.5
02 10:53 SW 22 16.09 Overcast BKN013 OVC020 15.6 10.6 15.6 12.2 72% 76.02 1012.2
02 09:53 SW 24 16.09 Overcast BKN013 OVC020 13.9 10.6 81% 76.02 1012.2
02 08:53 SW 22 16.09 Overcast OVC012 13.3 10.6 84% 76 1011.8
02 07:53 S 22 16.09 Overcast OVC015 13.9 10 78% 75.97 1011.4
02 06:53 S 17 G 30 16.09 Mostly Cloudy BKN015 13.3 10 81% 75.92 1010.8
02 05:53 S 17 16.09 A Few Clouds FEW013 12.8 9.4 80% 75.92 1010.6
02 04:53 S 17 16.09 Fair CLR 12.2 9.4 13.3 12.2 83% 75.9 1010.5
02 03:53 S 19 16.09 A Few Clouds FEW012 12.8 9.4 80% 75.92 1010.7
02 02:53 SW 31 16.09 Partly Cloudy SCT011 12.2 10 87% 75.92 1010.8
02 01:53 S 20 16.09 Fair CLR 12.8 10 83% 75.97 1011.3
02 00:53 S 22 16.09 Fair CLR 12.8 10 83% 75.97 1011.4
01 23:53 S 15 16.09 Fair CLR 12.8 10 83% 75.97 1011.4
01 22:53 S 17 16.09 Fair CLR 13.3 9.4 25.6 13.3 77% 76 1011.6
01 21:53 S 17 16.09 Fair CLR 14.4 10 75% 75.97 1011.6
01 20:53 S 15 16.09 Fair CLR 16.1 10 67% 75.92 1010.7
01 19:53 S 15 16.09 Fair CLR 18.3 9.4 56% 75.87 1010.2
01 18:53 W 11 16.09 Fair CLR 21.7 10 47% 75.84 1009.9
01 17:53 W 17 16.09 Fair CLR 23.9 11.1 45% 25 75.84 1009.9
01 16:53 Calm 16.09 Fair CLR 25 11.7 25 18.9 43% 26 75.84 1010.0
01 15:53 SW 13 16.09 Fair CLR 25 11.7 43% 26 75.9 1010.5
01 14:53 S 13 16.09 Fair CLR 23.9 12.2 48% 25 75.97 1011.6
01 13:53 S 13 16.09 Fair CLR 23.3 11.1 46% 76 1011.9
01 12:53 S 15 16.09 Fair CLR 21.7 11.1 51% 76.05 1012.4
01 11:53 S 20 16.09 Fair CLR 21.1 10.6 51% 76.1 1013.1
01 10:53 S 22 16.09 Fair CLR 18.9 10.6 18.9 12.2 59% 76.12 1013.5
01 09:53 S 19 16.09 Fair CLR 17.8 10.6 63% 76.12 1013.4
01 08:53 S 19 16.09 Fair CLR 15.6 10 70% 76.12 1013.3
01 07:53 S 26 16.09 Fair CLR 13.9 10 78% 76.1 1013.0
01 06:53 S 19 16.09 Fair CLR 12.8 10 83% 76.07 1012.6
01 05:53 S 20 16.09 Fair CLR 12.2 10 87% 76.02 1012.0
01 04:53 S 17 16.09 Fair CLR 12.2 10 13.9 12.2 87% 76 1011.8
01 03:53 S 19 16.09 Fair CLR 12.2 10 87% 76 1011.8
01 02:53 S 19 16.09 Fair CLR 12.2 10 87% 76 1011.9
01 01:53 S 22 16.09 Fair CLR 12.8 10 83% 76.02 1012.1
01 00:53 S 22 16.09 Fair CLR 12.8 9.4 80% 76.05 1012.4
30 23:53 S 26 16.09 Fair CLR 13.3 9.4 77% 76.02 1012.2
30 22:53 S 26 16.09 Fair CLR 13.9 10 25.6 13.9 78% 76.02 1012.1
30 21:53 S 22 16.09 Fair CLR 14.4 10 75% 76.02 1012.0
30 20:53 S 19 16.09 Fair CLR 16.7 10 65% 75.97 1011.5
30 19:53 SW 15 16.09 Fair CLR 18.9 8.9 52% 75.95 1011.1
30 18:53 SW 19 16.09 Fair CLR 21.1 9.4 47% 75.92 1010.7
Date Time (pdt) Wind (kph) Vis. (km) Weather Sky Cond. Air Dwpt Max. Min. Relative Humidity Wind Chill (°C) Heat Index (°C) altimeter (cm) sea level (mb) 1 hr 3 hr 6 hr
6 hour
Temperature (ºC) Pressure Precipitation (cm)